Погода в Славгороде

Погода в Славгороде : погода сейчас, прогноз погоды и архив. Всё, что Вы хотите узнать о погоде в Славгороде!

Хотите узнать прогноз погоды в Славгороде? Тогда Вам сюда: Погода в Славгороде

Поиск расширенной информации на нашем сайте:

Другие новости

Новости СМИ2

Главная страница сайта

Новости сайта

03.07.2017

Напоминаем, что на нашем специализированном сайте Метеоцентр.Азия вы можете получить высокодетализированные автоматические прогнозы погоды по пунктам России, СНГ и мира в авиационном формате (включающие направление и скорость ветра, видимость, явления погоды, количество и форму облачности, нижнюю и верхнюю границу облачности).


Погода в Славгороде - сегодня

Время (UTC), дата Ветер
(°,м/с) 
Видим.   Явления Облачность Т
(°С)
Тd
(°С)
f(%) Тe
(°С)
Pmin
(гПа)
dP
(гПа)
Po
(мм)
O2
(г/м3)
Тmin Tmax R s Состояние
почвы
15 17.08.18 360 (С) 2{10}  20000 м    1/0 средняя 
[Ac trans]
+23 +9.8 43 +24  1008.6  1.5  746  275           
18 17.08.18 330 (СЗ) 20000 м    ясно 
+18.7 +13.3 71 +26  1010  1.2  746  279           
21 17.08.18 330 (СЗ) 20000 м    ясно 
+16.3 +12.4 78 +22  1010.7  0.6  747  282           
00 18.08.18 260 (З) 20000 м    ясно 
+12.4 +11.1 92 +17  1011.7  0.8  748  286  +12.2        сухая 
03 18.08.18 260 (З) 20000 м    ясно 
+23.1 +13.4 54 +29  1011.6  0.4  748  275           
06 18.08.18 280 (З) 20000 м    ясно 
+27.5 +9.2 32 +28  1011.1  -0.2  748  272           
09 18.08.18 260 (З) 20000 м    1/1 600 м 
[Cu med, cong]
+30.3 +8.7 26 +30  1009.7  -1.3  747  269           
12 18.08.18 190 (Ю) 20000 м    4/4 600 м кучево-дожд. 
[Cb cap]
+29.1 +8.7 28 +29  1009.1  -0.7  746  270    +30.8       
15 18.08.18 060 (СВ) 20000 м    1/1 600 м кучево-дожд. 
[Cb cap]
+23.2 +11 46 +26  1009.7  0.3  746  275           
18 18.08.18 090 (В) 20000 м    ясно 
+19.8 +11.7 60 +25  1009.6  -0.2  746  278           
21 18.08.18 110 (В) 20000 м    ясно 
+18.4 +12.7 69 +24  1009.1  -0.6  746  279           
00 19.08.18 060 (СВ) 20000 м    ясно 
+17.2 +11.9 71 +22  1009.1  746  280  +16.8        сухая 
03 19.08.18 070 (В) 20000 м    ясно 
+25.8 +11.9 42 +30  1008.3  -0.4  746  272           
06 19.08.18 100 (В) 20000 м    1/1 600 м 
[Cu hum]
+29.6 +10.5 31 +32  1007.1  -1  745  269           
09 19.08.18 120 (ЮВ) 20000 м    4/0 
[Cu hum]
+31.4 +9.2 25 +32  1005.7  -1.3  744  267           
12 19.08.18 090 (В) 20000 м    4/4 600 м кучево-дожд. 
[Cb cap]
+30.1 +9.1 27 +30  1005.5  -0.3  744  268    +31.6       
15 19.08.18 040 (СВ) 20000 м    3/3 600 м кучево-дожд., верхняя 
[Cb cap|Ci sp]
+23.2 +13 53 +29  1006.3  0.5  744  274           
18 19.08.18 070 (В) 20000 м    1/0 верхняя 
[Ci sp]
+21.6 +14.8 65 +30  1005.8  -0.6  743  275           
21 19.08.18 080 (В) 20000 м    ясно 
+19.1 +15 77 +29  1005  -0.9  743  277           
00 20.08.18 100 (В) 20000 м    3/0 верхняя 
[Ci sp]
+18.5 +15.8 84 +29  1003.9  -1.1  742  277  +18.3        сухая 
03 20.08.18 110 (В) 20000 м    10/0 средняя, верхняя 
[Ac trans|Ci sp]
+24 +15.1 58 +33  1003.1  -0.5  742  272           
06 20.08.18 130 (ЮВ) 20000 м    10/3 600 м кучево-дожд., верхняя 
[Cb cap|Ci sp]
+29.9 +12 33 +34  1001.7  -1.1  741  267           
09 20.08.18 160 (Ю) 5{10}  20000 м    10/3 600 м кучево-дожд., верхняя 
[Cb cap|Ci sp]
+32.5 +9.6 24 +33  1000.1  -1.5  740  265           
12 20.08.18 150 (ЮВ) 5{10}  20000 м    10/8 660 м кучево-дожд., средняя, верхняя 
[Cb cap|Ac trans|Ci sp]
+28.6 +9.4 30 +29  999.8  -0.5  739  268    +32.7       
15 20.08.18 110 (В) 20000 м    10/6 800 м кучево-дожд., средняя 
[Cb cap|Ac trans]
+25.8 +10.7 39 +28  998.2  -1.7  738  270           
Время (UTC), дата Ветер
(°,м/с) 
Видим.   Явления Облачность Т
(°С)
Тd
(°С)
f(%) Тe
(°С)
Pmin
(гПа)
dP
(гПа)
Po
(мм)
O2
(г/м3)
Тmin Tmax R s Состояние
почвы

Для получения пояснительной информации подведите курсор к названию столбца.

ПОГОДА в Славгороде - архив

Всё, что Вы хотите узнать о погоде в Славгороде - удобно и подробно!

Выберите нужную дату (начиная с 1 января 2015* года) и нажмите кнопку "Найти".
Будут отображены архивные сводки погоды по пункту Славгород, начиная с указанной даты.


Отображать данные в формате CSV (для использования в таблицах Excel)


Внимание! Наш архив погоды предназначен исключительно для личного некоммерческого использования в познавательных целях. Если Вам необходимы официальные справки о состоянии погоды (для производственных, юридических, коммерческих и т.п. целей), обращайтесь в органы Росгидромета.

*Примечание: данная дата относится к архиву по метеостанциям СССР (Россия, СНГ, Балтия).
Архив по метеостанциям Зарубежной Европы и Азии (кроме Китая) хранится 10 дней, по другим регионам земного шара (Китай, Африка, Америка, Австралия, Океания) - 1 день.

Славгород - район местоположения метеостанции


Название, широта, долгота, высота метеостанции:
Славгород 53°ш. 78.6°д. 126 м над ур. моря [Российская Федерация]

Дополнительная информация

В oтличие oт бoльшинства пoгoдных сайтoв мы публикуем пoдрoбную метеoинфoрмацию в детальнoм прoфессиoнальнoм фoрмате.

Характеристики температуры и влажнoсти вoздуха измеряются на высoте 2 м в тени вдали oт зданий и деревьев.
Скoрoсть ветра измеряется на высoте 10 м (на урoвне рoста челoвека скoрoсть ветра ниже в 1.5-2 раза). Если метеoстанция нахoдится в гoрoде или в лесу, тo скoрoсть ветра занижена на 2-4 м/с пo сравнению с oткрытым местoм. Скoрoсть ветра над акватoриями крупных рек и oзёр, а также на вершинах хoлмoв на 2-5 м/с выше, чем в oбычных услoвиях.
Атмoсфернoе давление в разных тoчках местнoсти мoжет значительнo oтличаться oт давления на метеoстанции, в зависимoсти oт услoвий рельефа (при пoдъёме на 10 м давление пoнижается примернo на 1 мм рт.ст.).